Wind_Speed
11 12 12 12 14 14 16 17 20 22 24 26 27 27 27 26 25 24 23 23 23 23 26 30 33 34 38 40 43 46 49 49 54 48 49 42 40 40 36 35 36 35 35
12 13 15 17 19 21 21 22 23 25 25 27 29 30 31 31 30 29 29 27 28 27 26 25 30 33 37 38 40 43 46 49 50 53 50 50 49 45 41 39 37 38 38
16 18 19 20 23 26 28 29 30 31 31 30 31 33 34 35 36 36 35 34 33 31 30 30 30 29 34 36 39 41 42 44 49 53 53 48 49 47 48 44 43 42 40
15 17 19 23 26 28 29 30 32 34 36 39 40 41 41 41 42 43 43 44 43 41 38 36 34 33 33 35 37 39 39 40 44 50 53 54 53 52 50 50 51 46 44
17 18 21 25 28 30 32 33 35 38 41 43 45 47 48 49 49 49 49 48 49 51 51 48 43 38 36 35 35 37 37 40 42 48 52 53 54 57 58 57 52 47 49
19 22 24 30 32 32 35 39 43 47 49 51 51 52 54 54 53 52 52 51 51 52 55 56 55 51 45 40 38 37 35 41 44 47 48 47 56 59 60 59 54 53 52
21 24 28 31 33 36 40 44 48 51 53 54 55 56 58 58 58 56 51 47 52 55 56 56 56 57 55 51 44 41 39 39 44 49 49 54 45 52 58 60 61 59 59
27 29 31 33 37 41 44 47 49 51 54 56 57 57 59 62 59 47 42 41 48 57 57 56 52 55 56 53 52 47 46 45 43 45 55 57 50 45 48 53 59 62 57
30 32 34 38 42 44 46 48 49 51 53 55 57 58 58 62 55 46 40 43 50 57 59 61 59 60 56 44 45 49 51 51 47 43 44 50 57 46 47 44 49 52 59
31 34 38 42 44 46 47 48 50 51 54 54 54 51 49 50 45 39 33 36 43 47 52 54 53 50 48 44 45 49 49 55 50 47 45 44 46 57 50 54 53 55 55
34 39 42 41 43 44 46 47 49 51 51 49 48 45 43 41 40 32 29 31 37 42 46 46 44 42 42 44 44 48 54 52 48 48 46 47 45 46 61 59 56 57 54
38 41 41 41 41 43 44 47 47 45 44 44 44 44 42 40 38 32 30 31 34 41 47 48 45 39 41 43 44 47 48 49 47 45 47 46 47 46 48 57 63 62 54
38 40 40 41 41 41 42 44 42 38 39 41 42 43 45 45 44 38 37 37 35 37 41 42 40 45 45 45 42 47 47 45 45 46 46 45 46 45 45 47 52 57 59
39 39 39 40 41 41 41 38 36 36 38 40 42 46 48 44 40 40 43 47 49 45 45 45 45 39 38 41 41 40 45 46 45 47 47 49 45 43 44 46 48 49 50
37 37 37 39 40 41 40 36 35 34 32 37 41 43 45 46 44 40 41 42 42 43 44 46 43 39 37 38 36 31 47 46 47 41 45 46 46 45 46 46 47 48 48
35 34 35 37 38 39 40 39 33 32 30 32 33 35 40 40 41 39 41 41 41 40 41 41 41 40 36 36 35 29 26 33 39 40 43 45 46 47 45 44 46 49 47
30 31 33 34 35 38 37 37 41 39 35 33 30 32 33 37 39 39 38 39 41 38 39 41 42 37 35 32 32 26 29 29 34 39 40 42 47 47 45 45 47 46 43
27 27 29 31 32 34 33 33 35 38 41 44 39 33 32 34 34 34 35 35 37 34 35 37 38 34 30 28 29 27 26 24 29 34 37 43 47 46 44 47 47 49 45
24 25 27 28 29 30 29 30 33 36 37 39 42 38 36 34 33 34 27 26 29 34 32 30 34 32 29 30 28 28 26 26 27 30 37 39 42 45 46 47 49 48 46
21 22 24 26 26 27 27 29 32 34 36 36 37 37 36 40 38 33 31 30 30 33 33 22 22 27 26 20 24 29 27 27 27 30 34 37 41 43 45 46 46 45 45
20 20 21 22 24 24 24 26 28 31 32 32 33 32 29 31 32 31 31 30 30 31 30 26 19 15 14 16 19 24 27 26 28 30 33 36 38 40 42 42 43 41 41
18 18 18 20 21 22 22 22 24 27 28 30 32 32 30 31 30 30 29 29 27 25 24 23 21 18 16 15 16 18 20 23 25 27 29 32 34 36 38 38 38 39 38
15 16 16 17 18 19 20 20 22 24 26 27 29 31 32 32 32 31 30 28 27 25 23 20 17 15 14 14 12 12 14 18 20 21 24 26 28 31 33 33 33 33 32
13 14 14 15 16 17 18 19 20 21 23 24 26 27 29 30 31 31 31 31 28 26 24 21 19 17 14 12 10 8 6 6 7 11 14 18 22 24 25 27 27 27 29
12 12 13 14 15 16 16 17 18 19 21 22 24 25 26 26 27 28 29 29 29 29 29 27 24 20 18 14 12 10 7 4 2 3 7 10 16 18 19 21 22 23 24
11 12 12 13 13 14 15 16 16 18 19 20 21 22 23 24 25 26 26 27 27 27 27 27 27 25 26 24 20 14 11 8 5 3 3 6 10 14 15 17 20 23 25
Wind_Direction
13 14 8 4 357 353 348 343 338 337 335 335 332 333 334 333 331 327 323 320 313 299 278 266 265 263 263 263 259 259 259 257 257 259 259 259 253 250 247 247 245 241 240
353 354 352 348 344 340 336 333 330 328 326 323 322 320 318 319 319 318 317 315 313 310 304 295 282 271 264 262 261 259 257 258 255 257 257 257 254 251 249 246 246 243 240
339 336 337 336 333 332 331 329 326 324 323 321 318 315 315 313 310 308 308 307 305 303 303 301 299 291 282 270 264 259 258 260 259 255 255 252 253 251 244 241 241 241 239
326 319 318 322 324 322 321 319 319 318 317 316 314 312 309 307 305 304 303 302 300 297 295 293 292 292 292 286 275 266 262 259 261 260 255 251 249 248 242 240 237 236 237
319 319 314 316 316 315 314 314 312 311 310 307 306 304 302 301 300 300 298 296 295 295 293 291 287 285 284 285 284 278 268 263 259 259 257 252 244 240 237 236 236 237 237
308 311 307 311 312 313 313 312 311 310 309 307 305 303 300 298 296 295 294 293 290 288 287 287 288 286 281 279 279 279 277 258 256 255 251 247 248 242 241 237 233 230 231
300 303 306 308 310 312 311 311 310 309 307 305 303 302 300 298 297 296 294 291 288 286 284 283 281 280 281 279 275 274 273 265 258 246 250 250 245 244 244 240 237 236 240
303 307 309 310 311 311 310 310 309 307 305 303 301 299 298 295 295 295 293 288 283 280 278 277 274 274 273 275 276 273 269 268 262 257 245 247 248 247 248 250 249 244 239
306 309 311 311 312 313 313 312 310 307 304 302 301 300 298 296 298 296 294 284 278 277 277 275 273 271 267 266 266 267 269 267 267 263 260 257 245 240 245 243 239 235 236
309 312 313 316 317 317 316 314 312 310 307 306 304 303 302 301 304 301 297 292 287 285 284 281 276 271 271 266 260 258 259 265 265 265 261 258 252 242 237 240 239 237 238
311 313 316 318 318 317 316 316 315 314 312 310 308 308 307 309 312 305 300 294 289 288 285 285 282 279 273 266 258 256 254 262 261 261 262 261 255 247 236 236 234 234 231
313 315 317 319 319 320 320 321 320 316 312 311 312 312 312 316 317 305 299 293 291 287 285 284 282 281 275 270 263 256 255 255 252 250 251 249 250 249 243 237 237 234 231
314 316 319 320 322 325 326 326 317 317 316 315 313 312 315 317 314 308 302 299 294 289 289 292 289 278 272 277 268 255 250 251 246 243 239 241 244 253 248 242 241 241 240
316 318 320 321 325 329 331 323 321 324 322 318 317 313 313 309 307 306 304 304 302 296 297 294 295 290 274 274 279 260 245 245 246 242 241 243 244 241 235 241 239 233 224
315 318 322 325 329 332 328 330 328 326 316 310 306 305 305 304 305 307 305 302 300 295 292 290 287 284 282 282 282 269 241 242 244 245 239 238 239 235 235 237 234 226 218
315 319 325 327 331 332 328 334 340 332 315 308 306 304 303 302 304 304 303 301 301 299 290 280 280 276 273 281 278 284 272 253 245 244 238 236 236 233 229 226 227 224 218
315 321 325 328 333 332 333 337 335 338 335 332 319 314 310 310 308 306 305 303 301 300 289 281 276 273 270 271 272 275 260 260 247 237 237 236 235 231 225 218 219 218 212
315 323 326 330 335 332 337 337 336 335 334 335 337 326 320 317 317 316 314 309 303 306 303 295 276 270 259 264 262 262 262 267 252 243 237 234 232 227 217 213 213 216 211
316 323 327 331 337 336 337 341 341 337 334 331 334 336 339 337 328 324 332 334 331 327 317 295 289 287 268 261 253 252 257 262 257 252 240 235 231 224 220 217 216 216 213
315 324 329 337 336 338 342 345 344 343 342 341 340 341 346 337 336 345 349 348 346 348 353 335 300 294 293 273 238 249 257 265 256 251 243 239 233 228 222 214 213 209 210
315 321 333 337 341 343 347 348 350 351 350 349 351 352 342 339 351 352 352 353 353 355 358 6 354 307 290 276 268 264 271 267 256 249 243 239 229 219 216 216 215 212 209
310 323 330 343 345 351 354 355 355 357 0 360 2 6 1 5 2 360 359 358 357 358 357 356 354 348 335 316 302 286 278 264 258 247 239 231 223 216 214 211 207 207 206
310 317 329 343 349 354 360 0 1 3 5 8 9 12 15 15 15 14 11 10 8 5 5 4 4 5 2 351 331 306 279 260 252 252 241 230 221 216 214 212 210 207 206
306 315 327 337 346 356 360 2 3 6 8 11 13 14 17 20 21 22 23 23 22 21 20 18 17 16 15 14 9 2 348 320 289 266 249 234 220 214 212 209 206 206 204
306 314 323 331 340 349 357 1 3 7 9 11 12 14 15 16 21 23 24 26 27 30 34 34 30 28 25 25 27 28 28 23 357 253 234 227 216 209 208 206 201 197 196
305 310 317 324 330 337 344 351 359 2 3 7 10 12 14 16 18 20 22 25 26 30 33 37 42 46 49 46 44 44 50 57 73 114 187 194 198 192 191 191 186 180 177
Height
1512 1508 1507 1507 1507 1503 1501 1501 1501 1496 1492 1489 1486 1483 1480 1477 1475 1473 1471 1468 1463 1460 1459 1457 1455 1457 1456 1457 1458 1461 1461 1465 1462 1466 1465 1467 1468 1469 1471 1474 1476 1478 1482
1509 1506 1505 1505 1503 1502 1500 1498 1495 1492 1490 1486 1483 1479 1477 1473 1470 1469 1465 1463 1460 1455 1452 1450 1448 1448 1445 1446 1446 1446 1448 1451 1453 1452 1455 1457 1455 1459 1463 1464 1466 1468 1471
1504 1503 1502 1501 1501 1498 1494 1491 1489 1486 1484 1482 1478 1475 1471 1468 1466 1462 1458 1455 1453 1450 1445 1443 1440 1438 1437 1436 1436 1434 1434 1437 1441 1442 1443 1445 1446 1447 1449 1454 1455 1458 1461
1504 1504 1502 1500 1496 1493 1490 1487 1483 1481 1476 1473 1469 1465 1464 1460 1457 1454 1450 1445 1442 1440 1438 1435 1432 1429 1428 1428 1427 1423 1423 1423 1426 1430 1431 1432 1433 1434 1438 1440 1441 1446 1452
1502 1500 1498 1494 1491 1488 1484 1480 1478 1473 1469 1467 1460 1457 1453 1449 1446 1442 1440 1434 1428 1425 1423 1421 1421 1419 1418 1419 1417 1412 1411 1412 1413 1417 1418 1417 1418 1418 1418 1422 1432 1435 1441
1495 1493 1491 1488 1484 1480 1476 1472 1468 1463 1458 1453 1448 1443 1439 1435 1433 1430 1427 1421 1415 1411 1408 1406 1402 1403 1404 1404 1405 1402 1401 1400 1400 1405 1405 1403 1401 1405 1410 1411 1418 1419 1426
1488 1486 1483 1480 1476 1472 1467 1462 1456 1450 1445 1439 1434 1429 1423 1419 1416 1413 1412 1407 1399 1395 1393 1390 1388 1387 1386 1388 1391 1390 1388 1389 1387 1389 1391 1386 1391 1394 1399 1403 1403 1403 1409
1480 1477 1474 1469 1465 1461 1456 1451 1445 1439 1432 1424 1418 1413 1406 1401 1399 1397 1395 1390 1384 1379 1377 1375 1374 1371 1372 1373 1374 1373 1372 1374 1373 1375 1373 1373 1379 1385 1387 1390 1394 1400 1401
1472 1469 1464 1459 1454 1449 1443 1438 1431 1423 1417 1410 1403 1396 1390 1382 1382 1379 1378 1373 1366 1360 1359 1357 1355 1353 1353 1359 1360 1357 1357 1353 1356 1360 1360 1360 1364 1370 1375 1379 1380 1384 1385
1463 1459 1454 1449 1443 1437 1431 1424 1417 1409 1400 1393 1386 1382 1375 1367 1367 1364 1364 1359 1351 1346 1340 1336 1335 1335 1336 1341 1344 1343 1340 1334 1339 1343 1345 1345 1349 1352 1357 1358 1364 1366 1372
1453 1449 1444 1439 1433 1427 1419 1412 1404 1395 1386 1379 1372 1367 1363 1359 1354 1353 1353 1349 1343 1335 1327 1322 1320 1320 1321 1323 1327 1326 1320 1324 1326 1327 1328 1329 1333 1335 1339 1341 1346 1348 1354
1444 1439 1434 1429 1423 1416 1408 1400 1391 1384 1376 1368 1361 1354 1351 1348 1345 1343 1342 1339 1335 1326 1316 1311 1307 1307 1307 1307 1308 1307 1308 1312 1315 1313 1314 1313 1315 1317 1321 1327 1330 1335 1341
1434 1429 1424 1419 1412 1406 1398 1390 1383 1376 1367 1359 1352 1345 1340 1337 1333 1330 1328 1325 1321 1314 1306 1300 1296 1294 1292 1289 1287 1289 1293 1296 1297 1298 1297 1299 1302 1306 1313 1316 1319 1324 1329
1425 1420 1415 1409 1402 1396 1389 1384 1374 1366 1359 1352 1346 1339 1332 1328 1326 1322 1315 1307 1301 1297 1293 1287 1283 1281 1279 1276 1272 1271 1275 1278 1280 1281 1283 1287 1293 1297 1300 1303 1307 1312 1318
1417 1412 1406 1399 1393 1385 1381 1375 1365 1360 1355 1349 1344 1338 1329 1321 1318 1315 1309 1302 1296 1289 1281 1274 1270 1268 1266 1263 1259 1257 1259 1263 1267 1270 1273 1277 1282 1286 1289 1293 1298 1301 1307
1409 1404 1399 1392 1385 1378 1371 1361 1361 1354 1349 1345 1339 1334 1325 1318 1311 1305 1299 1292 1285 1278 1270 1264 1260 1257 1255 1253 1250 1247 1247 1250 1255 1259 1261 1265 1270 1273 1279 1283 1288 1291 1297
1402 1397 1392 1386 1378 1372 1365 1356 1346 1344 1341 1335 1330 1325 1319 1311 1303 1296 1288 1281 1274 1267 1259 1252 1247 1245 1245 1244 1243 1241 1242 1243 1246 1249 1253 1256 1260 1264 1269 1272 1277 1282 1288
1396 1392 1386 1380 1374 1368 1361 1353 1347 1339 1330 1322 1319 1315 1310 1302 1294 1287 1279 1270 1260 1254 1248 1241 1235 1233 1234 1234 1235 1235 1235 1236 1238 1242 1244 1247 1250 1254 1258 1263 1268 1272 1280
1389 1385 1380 1375 1369 1364 1357 1349 1343 1336 1330 1321 1311 1305 1299 1292 1285 1278 1269 1262 1254 1246 1238 1232 1227 1223 1223 1224 1226 1228 1229 1230 1231 1234 1236 1239 1241 1245 1249 1254 1259 1266 1272
1383 1380 1375 1369 1364 1359 1352 1345 1339 1332 1325 1317 1309 1301 1293 1287 1277 1268 1263 1256 1250 1241 1231 1223 1220 1217 1216 1215 1218 1221 1222 1223 1224 1226 1228 1231 1234 1238 1242 1247 1253 1259 1264
1377 1374 1370 1365 1360 1355 1349 1343 1337 1331 1323 1316 1308 1300 1296 1286 1276 1269 1262 1255 1248 1240 1233 1226 1221 1218 1217 1217 1217 1217 1218 1218 1219 1221 1223 1225 1228 1232 1236 1242 1247 1253 1259
1372 1369 1366 1361 1356 1351 1346 1340 1335 1329 1323 1315 1307 1300 1292 1285 1277 1270 1263 1256 1249 1243 1236 1230 1224 1221 1218 1217 1215 1215 1215 1215 1217 1218 1219 1222 1225 1228 1233 1238 1244 1250 1256
1367 1364 1361 1357 1353 1348 1343 1339 1333 1328 1322 1316 1308 1301 1293 1286 1279 1272 1264 1257 1251 1244 1238 1233 1228 1224 1221 1218 1217 1216 1215 1215 1216 1217 1218 1221 1224 1228 1232 1237 1243 1249 1254
1362 1360 1357 1353 1349 1345 1341 1336 1332 1327 1322 1316 1310 1303 1296 1290 1283 1276 1269 1262 1255 1248 1242 1237 1232 1227 1224 1221 1219 1218 1218 1218 1218 1219 1221 1223 1226 1229 1234 1238 1243 1248 1253
1358 1356 1353 1349 1346 1343 1339 1335 1331 1326 1321 1316 1310 1305 1299 1293 1287 1280 1274 1268 1261 1255 1248 1242 1237 1232 1229 1226 1223 1221 1220 1220 1220 1221 1224 1226 1229 1231 1236 1240 1244 1249 1254
1353 1351 1349 1346 1343 1340 1337 1334 1329 1325 1321 1316 1311 1306 1301 1295 1290 1284 1278 1272 1267 1261 1256 1250 1245 1240 1236 1232 1229 1226 1225 1224 1224 1225 1227 1229 1231 1234 1238 1243 1247 1251 1256